Weather History for Rocky Mount, NC

Change the Weather History Date:

Sunday, June 2, 2013

  Actual Average Record
Temperature  
Mean Temperature 79 °F -  
Max Temperature 89 °F 84 °F 99 °F (1989)
Min Temperature 69 °F 61 °F 43 °F (1966)
Cooling Degree Days 14    
Growing Degree Days 29 (Base 50)    
Moisture  
Dew Point 66 °F    
Average Humidity 67    
Maximum Humidity 90    
Minimum Humidity 42    
Precipitation  
Precipitation 0.00 in - - ()
Sea Level Pressure  
Sea Level Pressure 30.00 in    
Wind  
Wind Speed 9 mph (SSW)    
Max Wind Speed 15 mph    
Max Gust Speed 21 mph    
Visibility 10 miles    
Events      
Averages and records for this station are not official NWS values.
T = Trace of Precipitation, MM = Missing Value Source: NWS Daily Summary

Daily Weather History Graph

Daily Weather History Graph

Search for Another Location

Airport:

Trip Planner

Search our weather history database for the weather conditions in past years. The results will help you decide how hot, cold, wet, or windy it might be!

Date:

Astronomy

Jun. 02, 2013 Rise Set
Actual Time 5:56 AM EDT 8:23 PM EDT
Civil Twilight 5:26 AM EDT 8:53 PM EDT
Nautical Twilight 4:49 AM EDT 9:29 PM EDT
Astronomical Twilight 4:09 AM EDT 10:10 PM EDT
Moon 2:11 AM EDT (6/2) 3:01 PM EDT (6/2)
Length of Visible Light 15h 26m
Length of Day
14h 27m
Waning Crescent, 31% of the Moon is Illuminated
Jun 2
Waning Crescent
Jun 8
New
Jun 16
First Quarter
Jun 23
Full
Jun 30
Last Quarter

Hourly Weather History & Observations

Time (EDT) Temp. Heat Index Dew Point Humidity Pressure Visibility Wind Dir Wind Speed Gust Speed Precip Events Conditions
12:53 AM 73.0 °F - 64.9 °F 76% 30.07 in 10.0 mi South 9.2 mph - N/A   Clear
1:53 AM 72.0 °F - 66.0 °F 81% 30.06 in 10.0 mi South 10.4 mph - N/A   Clear
2:53 AM 71.1 °F - 66.9 °F 87% 30.04 in 10.0 mi SSW 8.1 mph - N/A   Clear
3:53 AM 70.0 °F - 66.9 °F 90% 30.01 in 10.0 mi South 8.1 mph - N/A   Clear
4:53 AM 69.1 °F - 66.0 °F 90% 30.01 in 10.0 mi South 5.8 mph - N/A   Clear
5:38 AM 69.8 °F - 66.2 °F 88% 30.02 in 10.0 mi South 4.6 mph - N/A   Mostly Cloudy
5:53 AM 70.0 °F - 66.9 °F 90% 30.01 in 10.0 mi South 6.9 mph - N/A   Overcast
6:53 AM 71.1 °F - 66.9 °F 87% 30.04 in 10.0 mi SSW 8.1 mph - N/A   Overcast
7:32 AM 71.6 °F - 66.2 °F 83% 30.03 in 10.0 mi SSW 9.2 mph - N/A   Mostly Cloudy
7:53 AM 73.0 °F - 66.9 °F 81% 30.04 in 10.0 mi SW 9.2 mph - N/A   Mostly Cloudy
8:28 AM 75.2 °F - 66.2 °F 73% 30.04 in 10.0 mi SW 10.4 mph 17.3 mph N/A   Scattered Clouds
8:42 AM 75.2 °F - 66.2 °F 73% 30.04 in 10.0 mi SW 13.8 mph - N/A   Mostly Cloudy
8:53 AM 75.0 °F - 66.0 °F 73% 30.04 in 10.0 mi SW 12.7 mph - N/A   Mostly Cloudy
9:12 AM 77.0 °F - 66.2 °F 69% 30.04 in 10.0 mi SW 11.5 mph - N/A   Scattered Clouds
9:36 AM 78.8 °F - 66.2 °F 65% 30.04 in 10.0 mi SSW 11.5 mph - N/A   Mostly Cloudy
9:53 AM 78.1 °F - 66.0 °F 66% 30.03 in 10.0 mi SW 12.7 mph 18.4 mph N/A   Mostly Cloudy
10:28 AM 80.6 °F 82.7 °F 66.2 °F 61% 30.03 in 10.0 mi SSW 12.7 mph - N/A   Scattered Clouds
10:53 AM 81.0 °F 83.0 °F 66.0 °F 60% 30.03 in 10.0 mi SSW 9.2 mph 16.1 mph N/A   Clear
11:53 AM 82.9 °F 85.0 °F 66.0 °F 56% 30.02 in 10.0 mi South 11.5 mph - N/A   Clear
12:53 PM 84.9 °F 86.6 °F 64.9 °F 51% 30.01 in 10.0 mi South 12.7 mph 17.3 mph N/A   Clear
1:53 PM 87.1 °F 88.3 °F 64.0 °F 46% 30.00 in 10.0 mi SW 15.0 mph 20.7 mph N/A   Partly Cloudy
2:53 PM 89.1 °F 90.3 °F 64.0 °F 43% 29.98 in 10.0 mi SSW 13.8 mph 19.6 mph N/A   Partly Cloudy
3:53 PM 88.0 °F 88.4 °F 62.1 °F 42% 29.96 in 10.0 mi South 8.1 mph - N/A   Scattered Clouds
4:53 PM 86.0 °F 87.3 °F 64.0 °F 48% 29.94 in 10.0 mi South 6.9 mph - N/A   Partly Cloudy
5:53 PM 88.0 °F 88.7 °F 63.0 °F 43% 29.92 in 10.0 mi South 8.1 mph - N/A   Partly Cloudy
6:53 PM 84.0 °F 85.4 °F 64.0 °F 51% 29.92 in 10.0 mi South 6.9 mph - N/A   Clear
7:53 PM 82.0 °F 83.8 °F 64.9 °F 56% 29.94 in 10.0 mi South 6.9 mph - N/A   Clear
8:53 PM 81.0 °F 82.7 °F 64.9 °F 58% 29.95 in 10.0 mi South 10.4 mph - N/A   Clear
9:53 PM 79.0 °F - 64.9 °F 62% 29.95 in 10.0 mi South 10.4 mph - N/A   Clear
10:53 PM 77.0 °F - 64.9 °F 66% 29.96 in 10.0 mi South 8.1 mph - N/A   Clear
11:53 PM 75.9 °F - 66.9 °F 74% 29.98 in 10.0 mi South 11.5 mph - N/A   Clear